[[{"header":{"parameterUnit":"m.s-1","parameterCategory":1,"la1":30.2991,"la2":30.254,"lo1":-89.0895,"lo2":-89.0444,"dy":0.0017,"dx":0.0017,"nx":28,"ny":28,"refTime":"2023-10-10T21:00:00:Z","depth":0,"parameterNumber":2,"parameterNumberName":"U-component_of_WINDS"},"data":[0,0,0,0,0,0,0,0,0,0,0,0,0,0,0,0,0,0,0,0,0,0,0,0,0,0,0,0,0,0,0,0,0,0,0,0,0,0,0,0,0,0,0,0,0,0,0,0,0,0,0,0,0,0,0,0,0,0,-1.7821,-1.7822,0,-1.7893,-1.7894,-1.7895,-1.7881,-1.7879,-1.7878,-1.7877,-1.7951,-1.7954,-1.7957,0,0,0,0,0,0,0,0,0,0,0,0,0,-1.7674,-1.7677,-1.7821,-1.7822,-1.7823,-1.7893,-1.7894,-1.7895,-1.7881,-1.7879,-1.7878,-1.7876,-1.795,-1.7954,-1.7958,0,0,0,0,0,0,0,0,0,0,0,0,0,-1.7741,-1.7678,-1.7821,-1.7825,-1.7826,-1.7893,-1.7894,-1.7895,-1.7881,-1.7879,-1.7877,-1.7875,-1.7949,-1.7953,-1.7958,-1.8027,0,0,-1.7973,-1.7975,0,0,0,0,0,0,0,0,-1.7737,-1.7746,-1.7823,-1.7824,-1.7826,-1.7876,-1.7869,-1.7939,-1.7882,-1.786,-1.7877,-1.7874,-1.7928,-1.7934,-1.7952,-1.803,-1.8033,-1.7973,-1.7976,-1.7978,-1.7979,0,0,0,0,0,0,0,-1.7733,-1.7743,-1.785,-1.7824,-1.7826,-1.7823,-1.783,-1.7882,-1.7904,-1.7862,-1.7861,-1.787,-1.7928,-1.7947,-1.7953,-1.8034,-1.7973,-1.7977,-1.798,-1.7982,-1.8173,-1.8175,0,0,0,0,0,0,-1.7727,-1.7739,-1.7847,-1.7852,-1.7776,-1.7827,-1.7835,-1.7862,-1.7903,-1.7908,-1.7871,-1.7869,-1.794,-1.7948,-1.7956,-1.8039,-1.7978,-1.7983,-1.7985,-1.8171,-1.8173,-1.8176,0,0,0,0,0,0,-1.7723,-1.7736,-1.7845,-1.7795,-1.7809,-1.7832,-1.7861,-1.7864,-1.7883,-1.791,-1.7914,-1.7887,-1.7939,-1.7949,-1.8009,-1.8041,-1.7985,-1.7989,-1.8168,-1.8172,-1.8175,-1.8206,0,0,0,0,0,0,-1.7719,-1.7735,-1.7761,-1.7796,-1.7812,-1.7896,-1.7863,-1.7867,-1.7892,-1.7889,-1.7926,-1.793,-1.7938,-1.8002,-1.8014,-1.8047,-1.7993,-1.8165,-1.817,-1.8174,-1.8202,-1.821,-1.8216,0,0,0,0,0,-1.7714,-1.7767,-1.7763,-1.7776,-1.7845,-1.7898,-1.7907,-1.7915,-1.7894,-1.7921,-1.7938,-1.7929,-1.8036,-1.8008,-1.8022,-1.8057,-1.8163,-1.8168,-1.8173,-1.8199,-1.8208,-1.8216,0,0,0,0,0,0,-1.7736,-1.7772,-1.7767,-1.7833,-1.7863,-1.7896,-1.7929,-1.7924,-1.796,-1.7957,-1.7965,-1.7973,-1.8034,-1.8051,-1.802,-1.8125,-1.8097,-1.8105,-1.8112,-1.8121,-1.8128,-1.8123,-1.7997,0,0,0,0,0,-1.7749,-1.7789,-1.7818,-1.7874,-1.7889,-1.7906,-1.793,-1.7933,-1.7964,-1.7977,-1.7999,-1.8029,-1.807,-1.8096,-1.8135,-1.8204,-1.8212,-1.8235,-1.8242,-1.8248,-1.8255,-1.8293,-1.8303,-1.8192,-1.8192,-1.8192,0,0,-1.7775,-1.7799,-1.7824,-1.7879,-1.7902,-1.7944,-1.7917,-1.7962,-1.7993,-1.7984,-1.8042,-1.8059,-1.8094,-1.8159,-1.8188,-1.8175,-1.8287,-1.8254,-1.8259,-1.8262,-1.8299,-1.831,-1.8319,-1.8195,-1.8195,-1.8194,0,0,-1.7844,-1.7867,-1.7915,-1.7939,-1.7975,-1.7986,-1.7998,-1.8032,-1.8043,-1.8101,-1.8094,-1.8132,-1.8201,-1.8226,-1.8248,-1.8327,-1.8321,-1.834,-1.8378,-1.8415,-1.8423,-1.8431,-1.846,-1.847,-1.8347,-1.8347,-1.8347,0,-1.7873,-1.7935,-1.7941,-1.7987,-1.8011,-1.8004,-1.8054,-1.8077,-1.8123,-1.814,-1.8124,-1.8212,-1.8235,-1.8306,-1.8325,-1.8343,-1.8357,-1.8336,-1.8422,-1.843,-1.8437,-1.8464,-1.8475,-1.8349,-1.8348,-1.8348,-1.8348,0,-1.7968,-1.8011,-1.8047,-1.8091,-1.8119,-1.8167,-1.8181,-1.8209,-1.821,-1.8223,-1.8283,-1.831,-1.8354,-1.8371,-1.8373,-1.8443,-1.8433,-1.842,-1.8391,-1.845,-1.8475,-1.8486,-1.8352,-1.8351,-1.835,-1.835,0,0,-1.8053,-1.8101,-1.8114,-1.8134,-1.8172,-1.8206,-1.8254,-1.8296,-1.832,-1.8353,-1.8393,-1.8452,-1.844,-1.8465,-1.8469,-1.8501,-1.8563,-1.8484,-1.8485,-1.8498,-1.8642,-1.8652,-1.8664,-1.8558,-1.856,-1.8562,-1.8639,0,-1.8126,-1.8209,-1.8217,-1.8292,-1.8332,-1.8326,-1.8367,-1.8396,-1.8409,-1.8446,-1.8461,-1.8503,-1.8484,-1.8499,-1.8531,-1.8548,-1.8592,-1.8543,-1.8596,-1.8598,-1.8588,-1.8677,-1.8688,-1.8759,-1.8649,-1.865,-1.8652,0,-1.8223,-1.8257,-1.8336,-1.8369,-1.8386,-1.8423,-1.8463,-1.8498,-1.853,-1.8538,-1.8566,-1.8566,-1.8615,-1.8585,-1.8653,-1.862,-1.8642,-1.8654,-1.8657,-1.8663,-1.8628,-1.8685,-1.8782,-1.8792,-1.8668,-1.8666,-1.8665,0,-1.8277,-1.8344,-1.8399,-1.8417,-1.8456,-1.8483,-1.8501,-1.8531,-1.8556,-1.8591,-1.8608,-1.8649,-1.8671,-1.8703,-1.8714,-1.8691,-1.8782,-1.8752,-1.879,-1.879,-1.8809,-1.8808,-1.8911,-1.8824,-1.8823,-1.8823,-1.8823,0,-1.8358,-1.8406,-1.8424,-1.8459,-1.8513,-1.8521,-1.8575,-1.8591,-1.8618,-1.8656,-1.8653,-1.8689,-1.8701,-1.8739,-1.8748,-1.8804,-1.8814,-1.8822,-1.8824,-1.8822,-1.8821,-1.8837,-1.8832,-1.8826,-1.8825,-1.8825,-1.8824,0,-1.8428,-1.8442,-1.8502,-1.8535,-1.8544,-1.8583,-1.8611,-1.8644,-1.8657,-1.8705,-1.8717,-1.8738,-1.8782,-1.8796,-1.885,-1.8856,-1.8921,-1.8919,-1.891,-1.891,-1.8947,-1.8944,-1.9064,-1.9081,-1.8982,-1.8983,-1.8984,0,-1.8479,-1.8516,-1.8552,-1.8577,-1.8596,-1.8636,-1.8662,-1.8671,-1.8698,-1.8738,-1.8766,-1.881,-1.8846,-1.8917,-1.8938,-1.8979,-1.8978,-1.9017,-1.8984,-1.8981,-1.8978,-1.8976,-1.898,-1.9023,-1.9024,-1.9025,-1.9026,0,-1.8568,-1.8572,-1.8609,-1.8649,-1.868,-1.8711,-1.8742,-1.8763,-1.8777,-1.8807,-1.8852,-1.888,-1.8935,-1.8979,-1.902,-1.9039,-1.9036,-1.9036,-1.9047,-1.9046,-1.904,-1.9044,-1.8927,-1.9033,-1.9033,-1.9032,-1.9032,-1.9031,-1.863,-1.8663,-1.8693,-1.8734,-1.8758,-1.8787,-1.882,-1.8837,-1.8874,-1.8919,-1.8923,-1.8972,-1.9003,-1.9059,-1.908,-1.9119,-1.9108,-1.9124,-1.9128,-1.9131,-1.9134,-1.9033,-1.9127,-1.9127,-1.9126,-1.9126,-1.9126,0,-1.8719,-1.8738,-1.8776,-1.8818,-1.8851,-1.8843,-1.8877,-1.8905,-1.8948,-1.8977,-1.9012,-1.9064,-1.9107,-1.913,-1.9173,-1.9199,-1.9199,-1.921,-1.9209,-1.9213,-1.9142,-1.9128,-1.921,-1.921,-1.921,-1.921,-1.921,-1.921,-1.8769,-1.8824,-1.8832,-1.8899,-1.8918,-1.8966,-1.8985,-1.9012,-1.9035,-1.9093,-1.9129,-1.9143,-1.9171,-1.9215,-1.9254,-1.926,-1.9276,-1.9289,-1.9294,-1.9227,-1.9218,-1.921,-1.9197,-1.9292,-1.9292,-1.9362,-1.9362,-1.9363]},{"header":{"parameterUnit":"m.s-1","parameterCategory":1,"la1":30.2991,"la2":30.254,"lo1":-89.0895,"lo2":-89.0444,"dy":0.0017,"dx":0.0017,"nx":28,"ny":28,"refTime":"2023-10-10T21:00:00:Z","depth":0,"parameterNumber":3,"parameterNumberName":"V-component_of_WINDS"},"data":[0,0,0,0,0,0,0,0,0,0,0,0,0,0,0,0,0,0,0,0,0,0,0,0,0,0,0,0,0,0,0,0,0,0,0,0,0,0,0,0,0,0,0,0,0,0,0,0,0,0,0,0,0,0,0,0,0,0,2.9398,2.9398,0,2.943,2.9431,2.9431,2.9395,2.9394,2.9393,2.9391,2.9421,2.9423,2.9425,0,0,0,0,0,0,0,0,0,0,0,0,0,2.93,2.9302,2.9397,2.9398,2.9398,2.943,2.9431,2.9431,2.9396,2.9394,2.9392,2.9391,2.9421,2.9423,2.9425,0,0,0,0,0,0,0,0,0,0,0,0,0,2.9338,2.9302,2.9397,2.9385,2.9384,2.943,2.9431,2.9431,2.9396,2.9394,2.9392,2.939,2.942,2.9423,2.9426,2.9485,0,0,2.9435,2.9437,0,0,0,0,0,0,0,0,2.9336,2.9342,2.9386,2.9386,2.9385,2.9407,2.9407,2.9449,2.9397,2.9391,2.9391,2.9389,2.9418,2.9421,2.9431,2.9487,2.9488,2.9435,2.9437,2.9439,2.944,0,0,0,0,0,0,0,2.9333,2.934,2.941,2.9387,2.9386,2.9376,2.9379,2.9415,2.9415,2.9392,2.9389,2.9394,2.9417,2.9429,2.9432,2.9488,2.9435,2.9438,2.944,2.9441,2.9593,2.9595,0,0,0,0,0,0,2.9333,2.9338,2.9409,2.9411,2.9355,2.9379,2.9383,2.9402,2.9415,2.9415,2.9395,2.9392,2.9424,2.9428,2.9433,2.9502,2.9439,2.9442,2.9443,2.9591,2.9593,2.9596,0,0,0,0,0,0,2.9331,2.9339,2.9408,2.9374,2.9382,2.9383,2.9405,2.9403,2.9415,2.9418,2.9417,2.9407,2.9423,2.9428,2.9472,2.9503,2.9443,2.9446,2.9588,2.9591,2.9594,2.9642,0,0,0,0,0,0,2.9328,2.9339,2.9363,2.9375,2.9384,2.9449,2.9406,2.9406,2.9421,2.9417,2.9429,2.9429,2.9422,2.9468,2.9476,2.9506,2.9448,2.9585,2.9589,2.9593,2.9638,2.9647,2.9654,0,0,0,0,0,2.9325,2.9374,2.9364,2.9373,2.9414,2.945,2.9455,2.9447,2.9423,2.9446,2.9448,2.9429,2.9499,2.9473,2.9481,2.9513,2.9583,2.9588,2.9593,2.9634,2.9645,2.9654,0,0,0,0,0,0,2.9364,2.9376,2.9364,2.942,2.9435,2.9444,2.9473,2.9459,2.948,2.9475,2.9462,2.9465,2.9512,2.9517,2.9488,2.957,2.9537,2.9544,2.9565,2.9575,2.9583,2.958,2.9451,0,0,0,0,0,2.938,2.941,2.9417,2.9465,2.9474,2.9472,2.9488,2.948,2.9494,2.95,2.9505,2.9519,2.9543,2.956,2.9583,2.9639,2.964,2.9664,2.9673,2.9679,2.9685,2.9713,2.9723,2.9612,2.9612,2.9611,0,0,2.9411,2.9421,2.944,2.9474,2.9484,2.9514,2.9478,2.9511,2.9532,2.9505,2.9546,2.9551,2.9565,2.9615,2.9637,2.962,2.9716,2.9686,2.9691,2.9693,2.9719,2.973,2.9739,2.9615,2.9614,2.9614,0,0,2.9483,2.9495,2.9535,2.9547,2.9564,2.9562,2.9572,2.9584,2.9586,2.9629,2.9608,2.9633,2.9677,2.9687,2.9698,2.9774,2.9756,2.9782,2.9824,2.9852,2.9861,2.9868,2.9894,2.9904,2.9788,2.9788,2.9788,0,2.952,2.9565,2.9558,2.9592,2.9607,2.9585,2.9624,2.9635,2.9659,2.9668,2.965,2.9703,2.9711,2.9763,2.9781,2.9792,2.9801,2.978,2.986,2.9868,2.9875,2.9899,2.9909,2.9791,2.9791,2.979,2.979,0,2.9608,2.964,2.9671,2.9695,2.9713,2.975,2.9746,2.9765,2.9756,2.9756,2.9799,2.9808,2.9832,2.9844,2.9835,2.9893,2.9882,2.9863,2.9828,2.9889,2.9911,2.9921,2.9795,2.9794,2.9793,2.9793,0,0,2.9706,2.9725,2.9736,2.9746,2.9763,2.9787,2.9822,2.9847,2.9863,2.9879,2.9908,2.9945,2.9927,2.9939,2.9931,2.9956,3.0014,2.9933,2.9933,2.9946,3.0077,3.0091,3.0102,3.0003,3.0005,3.0006,3.0075,0,2.9777,2.984,2.9834,2.9893,2.9921,2.9901,2.9931,2.9944,2.9945,2.9968,2.9969,2.9995,2.997,2.9977,3.0001,3.0002,3.004,2.9997,3.0027,3.0028,3.0023,3.0114,3.0129,3.0194,3.0084,3.0086,3.0087,0,2.9869,2.989,2.9952,2.9964,2.9975,3.0003,3.0025,3.0048,3.0061,3.006,3.0075,3.0062,3.0096,3.0063,3.0109,3.008,3.0092,3.0095,3.0097,3.0098,3.006,3.0116,3.0214,3.0224,3.0101,3.01,3.0099,0,2.9931,2.9975,3.0018,3.0027,3.0042,3.0062,3.0069,3.0081,3.0096,3.0115,3.0124,3.0146,3.0157,3.0174,3.0168,3.0144,3.0214,3.0181,3.0213,3.0213,3.0227,3.0226,3.0327,3.0238,3.0238,3.0238,3.0237,0,3.0011,3.0049,3.0046,3.0072,3.0114,3.0106,3.0147,3.0151,3.0162,3.0187,3.0171,3.0195,3.0185,3.0208,3.0204,3.0241,3.0247,3.0246,3.0244,3.0247,3.0247,3.0253,3.0248,3.024,3.024,3.0239,3.0239,0,3.0087,3.0087,3.0132,3.0143,3.0146,3.0177,3.0185,3.0209,3.0209,3.0241,3.0248,3.0248,3.0274,3.027,3.0298,3.0295,3.0342,3.0335,3.0338,3.0335,3.0367,3.0364,3.0475,3.0489,3.0392,3.0393,3.0394,0,3.0138,3.0167,3.0181,3.0197,3.0206,3.0233,3.0248,3.0241,3.0257,3.0275,3.0296,3.0321,3.034,3.0383,3.0384,3.0406,3.0398,3.0436,3.0401,3.0403,3.0397,3.0395,3.0397,3.0442,3.0443,3.0444,3.0445,0,3.0226,3.0224,3.0248,3.0271,3.029,3.0308,3.0323,3.0337,3.0332,3.0351,3.0378,3.0393,3.0422,3.0446,3.0466,3.0472,3.0457,3.0456,3.0464,3.0467,3.0466,3.0465,3.0354,3.0453,3.0452,3.0452,3.0451,3.0451,3.029,3.0314,3.0328,3.0354,3.0366,3.0381,3.0403,3.0407,3.0429,3.0453,3.0448,3.0478,3.049,3.0515,3.0523,3.0546,3.0532,3.0544,3.0547,3.055,3.0553,3.0464,3.055,3.0549,3.0549,3.0549,3.0549,0,3.0376,3.0384,3.0409,3.0432,3.0452,3.0438,3.0454,3.0471,3.0499,3.0511,3.0531,3.0561,3.0585,3.0588,3.061,3.0627,3.0621,3.0633,3.0631,3.0632,3.0565,3.0555,3.0638,3.0638,3.0638,3.0638,3.0638,3.0638,3.0423,3.0464,3.0464,3.0509,3.0516,3.0546,3.0557,3.057,3.058,3.0615,3.0635,3.0637,3.0646,3.0668,3.0688,3.0689,3.0697,3.0712,3.0709,3.0646,3.0637,3.0628,3.0619,3.0714,3.0714,3.0774,3.0775,3.0775]}]]